Regional Weather Roundup
Issued by NWS Burlington, VT

Home | Current Version | Previous Version | Text Only | Print | Product List | Glossary On
Versions: 1 2 3 4 5 6 7 8 9 10 11 12 13 14 15 16 17 18 19 20 21 22 23 24 25 26 27 28 29 30 31 32 33 34 35 36 37 38 39 40 41 42 43 44 45 46 47 48 49 50
000
ASUS41 KBTV 280910
RWRBTV
VERMONT REGIONAL WEATHER ROUNDUP
NATIONAL WEATHER SERVICE BURLINGTON VT
500 AM EDT FRI APR 28 2017

NOTE: "FAIR" INDICATES FEW OR NO CLOUDS BELOW 12,000 FEET WITH NO
SIGNIFICANT WEATHER AND/OR OBSTRUCTIONS TO VISIBILITY.

* THESE REPORTS ARE NOT UNDER NWS QUALITY CONTROL AND/OR DO NOT
  REPORT WEATHER SUCH AS PRECIPITATION AND FOG.

VTZ001>019-281000-
_____VERMONT_____


CITY           SKY/WX    TMP DP  RH WIND       PRES   REMARKS
BURLINGTON     CLOUDY    65  58  78 S10       29.81S
MONTPELIER     MOCLDY    59  58  96 S7        29.89S
MORRISVILLE    CLOUDY    60  55  83 S3        29.84F
ST. JOHNSBURY*   N/A     61  56  83 MISG      29.85S
LYNDONVILLE*   CLOUDY    59  56  89 SE5       29.89S
RUTLAND*       CLOUDY    61  57  88 E8        29.87S
SPRINGFIELD    CLOUDY    59  55  87 S3        29.90R
HIGHGATE*      CLOUDY    64  58  80 S7        29.81S
NEWPORT*       CLOUDY    59  56  87 S6        29.85S
BENNINGTON     CLOUDY    62  57  83 CALM      29.88S
SUTTON*          N/A     57 N/A N/A MISG        N/A

_____LAKE CHAMPLAIN_____


CITY           SKY/WX    TMP DP  RH WIND       PRES   REMARKS
BURTON ISLAND*   N/A     54  52  94 SW13        N/A
COLCHESTER RF*   N/A     57  55  94 S22         N/A

$$

NYZ007-026>031-035-052-083-087-281000-
_____NORTHERN NEW YORK_____


CITY           SKY/WX    TMP DP  RH WIND       PRES   REMARKS
PLATTSBURGH    LGT RAIN  59  57  93 E5        29.81R
SARANAC LAKE   CLOUDY    56  56 100 SW7       29.85R
MASSENA        CLOUDY    62  59  90 SW13      29.80R
OGDENSBURG*    FAIR      59  55  88 SW9G18    29.81R
POTSDAM*       MOCLDY    61  59  94 SW13G18   29.81S
WATERTOWN      CLEAR     53  48  83 SW10G17   29.86R
FT DRUM        CLEAR     55  49  80 SW12      29.86R
ALBANY         CLOUDY    62  57  83 S8        29.87S
GLENS FALLS    CLOUDY    62  58  86 SW8       29.86R

$$
NHZ002-005-011-281000-
_____NEW HAMPSHIRE_____


CITY           SKY/WX    TMP DP  RH WIND       PRES   REMARKS
LEBANON        CLOUDY    62  58  86 S7        29.87S
KEENE          LGT RAIN  59  57  94 CALM      29.90F
MT WASHINGTON  DRZL/FOG  46  46 100 W52         N/A  VSB 0
PLYMOUTH       CLOUDY    56  54  95 CALM      29.91S FOG
WHITEFIELD     CLOUDY    58  52  80 CALM      29.87S

$$

_____REGIONAL QUEBEC LOCATIONS_____


CITY           SKY/WX    TMP DP  RH WIND       PRES   REMARKS
MONTREAL       LGT RAIN  50  46  87 N3        29.79R
QUEBEC CITY    CLOUDY    37  36  93 E13G21    29.88S WCI  29
SHERBROOKE     CLOUDY    57  54  88 CALM      29.83R

_____REGIONAL ONTARIO LOCATIONS_____


CITY           SKY/WX    TMP DP  RH WIND       PRES   REMARKS
OTTAWA         MOCLDY    61  59  94 S13       29.77R

______KEY______
VSB  - VISIBILITY IN MILES
WCI  - WIND CHILL INDEX
HX   - HEAT INDEX
$$
NNNN




USA.gov is the U.S. government's official web portal to all federal, state and local government web resources and services.